STARLINK-4718, 53773

Orbit data source: Space-Track

STARLINK-4718, 53773 is a payload satellite owned by SpaceX/Seattle (US) in LEO that was launched on Sun, 11 Sep 2022 UTC via an FALCON 9 launch vehicle from the Air Force Eastern Test Range (AFETR). Payload-class satellites include a variety of spacecraft equipped with specific instruments for various scientific and technological missions. These include communications satellites like Starlink; space stations such as the ISS; scientific satellites like the Hubble; Earth observation satellites from companies like Planet Labs, Umbra, and HawkEye 360; GPS; miniature CubeSats for education and research; and military/defense satellites.

Loading next visibility...
Identifier
53773, 2022-111A
Orbit
LEO
Last TLE update
13 hours ago
Origin
Manufacturer
SpaceX/Seattle
Mission
Operational Commercial Communications
Bus & Motor
STARLINK, Unknown motor
Mass
305 kg wet, ~290 kg dry
Launch date (UTC)
2022-09-11 (3 years ago)
Launch vehicle
FALCON 9
Launch site
Air Force Eastern Test Range (AFETR)
Object type
Payload
Rocket body
Debris
Shape & HBR
Box + 1 Pan, 8.86 m
Radar Cross Section
13.562 m², Large (>1 m²)

Expand to show TLE details & history

TLE from 13 hours ago
0 STARLINK-4718
1 53773U 22111A   25181.88970021  .00000464  00000-0  47205-4 0  9990
2 53773  53.2185 334.4167 0001227  89.4625 270.6507 15.08845777155836
Epoch: 2025-06-30T21:21Z
TLE epoch observation values (Epoch: 2025-06-30T21:21:10.098Z)
Latitude
-0.00007°
Longitude
94.93155°
Altitude
540.614 km
Speed
7.593 km/s
True Right ascension
22h 17m 39s
True Declination
0° 00' 00"
Sunlit
Object was in full shadow at epoch
Visualization orbit readout
Latitude
-3.65004°
Longitude
89.83743°
Altitude
541.248 km
Speed
7.593 km/s
Apparent Right ascension
22h 35m 23s
Apparent Declination
-65° 35' 04"
Sunlit
Object is in full shadow
Visualization observer readout
Local Sidereal Time
21:41:26
Azimuth
174.243° S
Elevation
-16.021°
Doppler factor
1
Orbital elements
Apogee altitude
540.819 km
Perigee altitude
539.122 km
Semi-major axis
6,918.107 km
Eccentricity
0.00012
Inclination
53.2185°
RAAN
334.4167°
Arg. of periapsis
89.4625°
True anomaly
Unknown
Mean anomaly
270.6507°
Eccentric anomaly
Unknown
Mean motion
3.77192 °/min
Orbital period
95.44 mins
BSTAR
0.000047205
Loading maneuver chart data...
Loading SW <> Apogee altitude chart data...
Loading historical data...
Loading historical data...
Loading historical data...
Loading historical data...
Loading historical data...
Loading historical data...
Loading historical data...

STARLINK-4718 Visibility forecast

Observer location: undefined°, undefined°

Span
Click to sort rows by Start time (UTC) header in descending order
Start Az.
Max El. time (UTC)
Max El. Az.
Max El.
End time (UTC)
End Az.
5 mins2025-07-01 11:49:02.908Z167.642° S2025-07-01 11:51:02.908Z131.405° SE19.776°2025-07-01 11:54:02.908Z80.666° E
6 mins2025-07-01 13:28:02.908Z256.485° W2025-07-01 13:30:02.908Z311.965° NW38.259°2025-07-01 13:34:02.908Z41.71° NE
4 mins2025-07-01 18:30:02.908Z352.266° N2025-07-01 18:31:02.908Z14.46° NNE23.781°2025-07-01 18:34:02.908Z77.168° E
5 mins2025-07-01 20:09:02.908Z291.414° WNW2025-07-01 20:11:02.908Z225.596° WSW39.142°2025-07-01 20:14:02.908Z151.012° SSE
|